Location: Arrodets-la-Barthe
(43.0306°N, 0.2829°E)
Time: 01:49:28
(UTC+00:00)

NOAA 19 - Pass Details

Date: 07 April 2023
Orbit: 840 x 859 km, 99.1° (Epoch: 29 May)

Event Time Altitude Azimuth Distance (km) Brightness Sun altitude
Exits shadow 18:53:50 -1° 138° (SE) 3,469 7.9 -4.8°
Rises 18:54:01 0° 138° (SE) 3,394 7.8 -4.8°
Reaches altitude 10° 18:56:34 10° 129° (SE) 2,461 7.1 -5.3°
Maximum altitude 19:01:26 35° 66° (ENE) 1,348 5.9 -6.1°
Drops below altitude 10° 19:06:18 10° 3° (N) 2,468 7.8 -7.0°
Sets 19:08:51 0° 354° (N) 3,406 8.7 -7.4°
